Location: Alsip
(41.6689°N, 87.7387°W)
Time: 14:19:49
(UTC+00:00)

Cosmos 1603 - Pass Details

Date: 14 July 2020
Orbit: 830 x 861 km, 71.0° (Epoch: 04 August)

Event Time Altitude Azimuth Distance (km) Brightness Sun altitude
Exits shadow 04:32:04 57° 139° (SE) 997 3.7 -23.7°
Maximum altitude 04:32:41 61° 109° (ESE) 964 3.7 -23.8°
Drops below altitude 10° 04:38:19 10° 31° (NNE) 2,492 6.6 -24.2°
Sets 04:40:49 0° 28° (NNE) 3,436 7.5 -24.3°
